Location: Oshawa
(43.9000°N, 78.8670°W)
Time: 00:35:05
(UTC-04:00)

Amateur Radio Satellites - All Passes

Search period start: 19 April 2015 00:05
Search period end: 20 April 2015 00:05
Location: Oshawa, 43.9000°N, 78.8670°W

Satellite Date Start Highest point End Downlink Frequencies (MHz)
Time Altitude Azimuth
BUGSAT 1 19 Apr 00:07:40 00:11:23 33° 97° (E) 00:15:10 437.445
Cosmos 2491 19 Apr 00:11:34 00:20:13 76° 95° (E) 00:28:59 435.465 / 435.565
QB50P2 19 Apr 00:13:03 00:17:18 58° 100° (E) 00:21:32 145.880/145.840
Cosmos 2504 19 Apr 00:15:42 00:21:03 19° 57° (ENE) 00:26:31 435.465 / 435.565
TISAT 1 19 Apr 00:17:57 00:21:53 41° 71° (ENE) 00:25:51 437.305
50 SAT 19 Apr 00:18:35 00:21:20 17° 269° (W) 00:24:01 437.505
SPROUT 19 Apr 00:18:36 00:22:44 52° 73° (ENE) 00:26:56 437.525
YUBILEINY 19 Apr 00:24:44 00:33:04 48° 271° (W) 00:41:13 435.215
BEESAT 19 Apr 00:32:33 00:34:33 13° 60° (ENE) 00:36:46 436.000
SWISSCUBE 19 Apr 00:33:17 00:35:40 14° 61° (ENE) 00:38:15 437.505
POPSAT HIP 1 19 Apr 00:36:19 00:40:37 81° 284° (WNW) 00:44:54 437.405
NANOSAT C BR1 19 Apr 00:36:44 00:41:01 80° 284° (WNW) 00:45:17 145.865
TIGRISAT 19 Apr 00:37:50 00:42:20 43° 289° (WNW) 00:46:46 435.000
PHONESAT 2.4 19 Apr 00:37:52 00:41:17 44° 188° (S) 00:44:41 2401.200-2431.200
UNISAT 6 19 Apr 00:38:33 00:43:01 42° 289° (WNW) 00:47:26 437.425
O/OREOS (USA 219) 19 Apr 01:00:49 01:05:20 55° 297° (WNW) 01:09:52 437.305
POLYITAN 1 19 Apr 01:02:36 01:06:40 41° 289° (WNW) 01:10:43 437.675
DUCHIFAT 1 19 Apr 01:13:29 01:17:21 33° 290° (WNW) 01:21:10 145.980
ANTELSAT 19 Apr 01:21:16 01:24:30 18° 296° (WNW) 01:27:35 437.575/2403.000
QB50P1 19 Apr 01:26:11 01:29:42 25° 293° (WNW) 01:33:10 145.935-145.965
VERMONT LUNAR 19 Apr 01:26:16 01:28:33 17° 205° (SSW) 01:30:46 437.305
RS-15 19 Apr 01:31:07 01:42:40 81° 238° (WSW) 01:54:42 29.354- 29.394
ITUPSAT 1 19 Apr 01:31:27 01:35:59 43° 70° (ENE) 01:40:32 437.325
AIST 1 19 Apr 01:34:04 01:37:44 28° 91° (E) 01:41:28
BUGSAT 1 19 Apr 01:43:31 01:46:43 22° 293° (WNW) 01:49:53 437.445
QB50P2 19 Apr 01:50:17 01:52:48 15° 296° (WNW) 01:55:10 145.880/145.840
TISAT 1 19 Apr 01:54:59 01:57:55 18° 269° (W) 02:00:43 437.305
SPROUT 19 Apr 01:56:42 01:59:13 15° 271° (W) 02:01:33 437.525
BEESAT 19 Apr 02:06:59 02:11:47 85° 257° (WSW) 02:16:36 436.000
Cosmos 2504 19 Apr 02:07:40 02:16:05 86° 82° (E) 02:23:49 435.465 / 435.565
SWISSCUBE 19 Apr 02:08:11 02:12:59 77° 257° (WSW) 02:17:48 437.505
STARS 19 Apr 02:08:58 02:10:58 13° 62° (ENE) 02:13:10 437.465
Cosmos 2491 19 Apr 02:11:05 02:18:10 26° 298° (WNW) 02:25:01 435.465 / 435.565
PHONESAT 2.4 19 Apr 02:16:26 02:19:08 20° 204° (SSW) 02:21:46 2401.200-2431.200
KKS-1 19 Apr 02:30:01 02:33:55 32° 69° (ENE) 02:37:53 437.445
Oscar 19 19 Apr 02:49:01 02:54:15 74° 102° (ESE) 02:59:27 437.125/150
GONETS M04 19 Apr 02:50:58 02:54:59 14° 51° (NE) 02:59:32
Gurwin Techsat 1B 19 Apr 02:52:28 02:56:31 22° 91° (E) 03:00:42 435.225
ITAMSAT 1 19 Apr 03:07:00 03:11:39 34° 96° (E) 03:16:22 435.822/435.867
ITUPSAT 1 19 Apr 03:10:18 03:14:05 22° 268° (W) 03:17:46 437.325
AIST 1 19 Apr 03:11:44 03:15:24 26° 288° (WNW) 03:19:00
MOZHAYETS 4 19 Apr 03:40:28 03:42:34 13° 61° (ENE) 03:44:53
STARS 19 Apr 03:42:34 03:46:56 70° 259° (WSW) 03:51:21 437.465
RS-15 19 Apr 03:45:29 03:53:41 21° 258° (WSW) 04:01:22 29.354- 29.394
Cosmos 2504 19 Apr 04:02:51 04:08:23 19° 282° (WNW) 04:13:19 435.465 / 435.565
KKS-1 19 Apr 04:06:52 04:10:36 26° 266° (W) 04:14:17 437.445
DANDE 19 Apr 04:07:28 04:11:16 16° 63° (ENE) 04:15:54 436.750
BEESAT 2 19 Apr 04:13:28 04:14:52 12° 110° (ESE) 04:16:29 435.950
CUSAT 1 19 Apr 04:16:43 04:21:59 24° 67° (ENE) 04:28:14 437.405
BEESAT 3 19 Apr 04:20:32 04:23:08 17° 112° (ESE) 04:25:53 437.485
Oscar 19 19 Apr 04:29:47 04:33:04 17° 299° (WNW) 04:36:09 437.125/150
Gurwin Techsat 1B 19 Apr 04:31:41 04:36:49 50° 290° (WNW) 04:41:55 435.225
AO-7 19 Apr 04:32:32 04:39:45 33° 95° (E) 04:47:08 29.400- 29.500
HORYU 2 19 Apr 04:38:40 04:43:01 47° 99° (E) 04:47:23 437.375
M-CUBED/EXP-1 PRIME 19 Apr 04:44:36 04:47:20 16° 56° (NE) 04:50:17 437.505
GONETS M04 19 Apr 04:45:22 04:54:10 64° 77° (ENE) 05:02:56
ITAMSAT 1 19 Apr 04:46:33 04:51:08 32° 293° (WNW) 04:55:40 435.822/435.867
Cosmos 2499 19 Apr 05:00:39 05:04:19 14° 52° (NE) 05:08:19 435.465 / 435.565
JAS-2 19 Apr 05:01:15 05:07:51 50° 97° (E) 05:13:42 435.910
MOZHAYETS 4 19 Apr 05:14:35 05:19:14 77° 258° (WSW) 05:23:55
AUBIESAT-1 19 Apr 05:32:11 05:36:28 36° 63° (ENE) 05:40:53 437.475
BEESAT 2 19 Apr 05:48:21 05:52:28 73° 305° (NW) 05:56:39 435.950
DANDE 19 Apr 05:48:46 05:55:17 79° 79° (E) 06:03:25 436.750
BEESAT 3 19 Apr 05:56:49 06:00:49 51° 309° (NW) 06:04:53 437.485
CUSAT 1 19 Apr 05:58:26 06:05:13 75° 262° (W) 06:13:19 437.405
AIST 2 19 Apr 06:02:47 06:06:56 54° 119° (ESE) 06:11:09 435.215
HORYU 2 19 Apr 06:16:07 06:19:23 19° 296° (WNW) 06:22:32 437.375
M-CUBED/EXP-1 PRIME 19 Apr 06:16:54 06:21:37 79° 253° (WSW) 06:26:31 437.505
AO-7 19 Apr 06:24:54 06:33:03 60° 294° (WNW) 06:41:09 29.400- 29.500
CUBESAT XI-V 19 Apr 06:30:10 06:34:41 54° 73° (ENE) 06:39:13 437.345
CUTE-I 19 Apr 06:40:55 06:44:57 22° 92° (E) 06:49:07 437.470
GONETS M04 19 Apr 06:43:05 06:50:30 30° 277° (W) 06:57:38
JAS-2 19 Apr 06:46:42 06:52:39 31° 298° (WNW) 06:57:55 435.910
Cubesat XI-IV 19 Apr 06:48:02 06:52:24 26° 93° (E) 06:56:50 437.490
Cosmos 2499 19 Apr 06:51:28 06:59:35 68° 78° (ENE) 07:07:03 435.465 / 435.565
STRAND 1 19 Apr 06:51:38 06:56:31 48° 70° (ENE) 07:01:27 437.568
PRISM 19 Apr 07:01:53 07:06:05 81° 75° (ENE) 07:10:17 437.425
AUBIESAT-1 19 Apr 07:07:09 07:11:17 29° 261° (W) 07:15:27 437.475
BEESAT 2 19 Apr 07:29:24 07:31:23 13° 326° (NNW) 07:33:16 435.950
DANDE 19 Apr 07:33:16 07:38:18 21° 271° (W) 07:43:44 436.750
BEESAT 3 19 Apr 07:39:34 07:39:52 10° 330° (NNW) 07:40:02 437.485
AIST 2 19 Apr 07:42:28 07:45:50 22° 319° (NW) 07:49:10 435.215
CUSAT 1 19 Apr 07:43:34 07:47:28 15° 275° (W) 07:51:11 437.405
CUBESAT XI-V 19 Apr 08:09:27 08:12:31 17° 271° (W) 08:15:24 437.345
AO-7 19 Apr 08:19:44 08:24:20 16° 315° (NW) 08:28:34 29.400- 29.500
CUTE-I 19 Apr 08:20:14 08:25:22 50° 290° (WNW) 08:30:28 437.470
HO-68 19 Apr 08:25:41 08:28:30 13° 84° (E) 08:31:50 435.675
Cubesat XI-IV 19 Apr 08:27:40 08:32:42 43° 291° (WNW) 08:37:41 437.490
STRAND 1 19 Apr 08:32:01 08:36:01 22° 268° (W) 08:39:54 437.568
Cosmos 2499 19 Apr 08:45:46 08:52:00 25° 279° (W) 08:57:38 435.465 / 435.565
DOVE 4 19 Apr 09:21:38 09:25:46 27° 94° (E) 09:30:09 437.250
BRITE-PL 19 Apr 09:21:56 09:26:41 57° 100° (E) 09:31:48 437.365/2234.400
CINEMA 3 19 Apr 09:24:03 09:26:43 15° 88° (E) 09:29:38 145.822/145.860
COMPASS 1 19 Apr 09:25:29 09:28:26 19° 91° (E) 09:31:30 437.405
PCSat 19 Apr 09:25:29 09:29:04 19° 107° (ESE) 09:32:50 145.827
O/OREOS (USA 219) 19 Apr 09:30:21 09:34:35 38° 59° (ENE) 09:38:48 437.305
CANX-2 19 Apr 09:34:38 09:38:41 38° 97° (E) 09:42:41 2200.000
SEEDS 19 Apr 09:38:48 09:42:37 32° 95° (E) 09:46:27 437.485
CUTE 1.7 + AOD 2 19 Apr 09:44:52 09:49:00 44° 98° (E) 09:53:06 437.475
GOMX 1 19 Apr 09:46:58 09:51:51 66° 101° (ESE) 09:57:02 467.674
TIGRISAT 19 Apr 10:02:15 10:05:39 22° 65° (ENE) 10:09:12 435.000
UNISAT 6 19 Apr 10:03:02 10:06:31 23° 66° (ENE) 10:10:10 437.425
ZACube-1 19 Apr 10:09:40 10:12:03 14° 88° (E) 10:14:39 437.345
HO-68 19 Apr 10:10:24 10:17:38 75° 104° (ESE) 10:24:49 435.675
CUBEBUG 2 19 Apr 10:11:40 10:15:24 23° 92° (E) 10:19:16 437.445
AAUSAT CUBESAT 2 19 Apr 10:13:28 10:17:36 54° 99° (E) 10:21:42 437.432
Cosmos 2491 19 Apr 10:20:20 10:28:29 41° 70° (ENE) 10:36:46 435.465 / 435.565
POLYITAN 1 19 Apr 10:22:30 10:25:19 18° 65° (ENE) 10:28:14 437.675
Oscar 11 19 Apr 10:25:12 10:29:10 34° 96° (E) 10:33:09 145.826/435.025
DUCHIFAT 1 19 Apr 10:32:17 10:35:25 21° 66° (ENE) 10:38:39 145.980
DELFI C3 19 Apr 10:36:13 10:39:54 33° 96° (E) 10:43:35 145.870
ANTELSAT 19 Apr 10:43:43 10:48:05 58° 73° (ENE) 10:52:36 437.575/2403.000
QB50P1 19 Apr 10:44:26 10:48:02 29° 69° (ENE) 10:51:43 145.935-145.965
DX 1 19 Apr 10:46:50 10:50:01 20° 92° (E) 10:53:18 434.975-435.025
UWE-3 19 Apr 10:52:47 10:57:19 48° 99° (E) 11:01:53 435.000/436.395/437.385
DOVE 4 19 Apr 10:59:04 11:03:38 39° 289° (WNW) 11:08:21 437.250
BUGSAT 1 19 Apr 10:59:25 11:02:52 28° 69° (ENE) 11:06:22 437.445
CINEMA 3 19 Apr 10:59:33 11:04:24 68° 286° (WNW) 11:09:23 145.822/145.860
COMPASS 1 19 Apr 11:00:22 11:04:21 39° 289° (WNW) 11:08:16 437.405
BRITE-PL 19 Apr 11:01:30 11:04:55 19° 294° (WNW) 11:08:21 437.365/2234.400
HUMSAT D 19 Apr 11:02:56 11:06:27 24° 93° (E) 11:10:01 437.325/437.525
PCSat 19 Apr 11:06:36 11:12:00 67° 303° (WNW) 11:17:26 145.827
QB50P2 19 Apr 11:07:17 11:11:22 51° 73° (ENE) 11:15:31 145.880/145.840
O/OREOS (USA 219) 19 Apr 11:10:16 11:13:48 22° 257° (WSW) 11:17:12 437.305
CANX-2 19 Apr 11:11:06 11:14:24 21° 294° (WNW) 11:17:35 2200.000
SEEDS 19 Apr 11:14:49 11:18:18 24° 292° (WNW) 11:21:43 437.485
CUTE 1.7 + AOD 2 19 Apr 11:21:36 11:24:37 18° 295° (WNW) 11:27:32 437.475
FUNcube-1 19 Apr 11:21:53 11:26:30 77° 102° (ESE) 11:31:05 145.935
VELOX 1 19 Apr 11:24:53 11:28:25 24° 93° (E) 11:32:03 145.980
GOMX 1 19 Apr 11:26:24 11:29:36 17° 296° (WNW) 11:32:44 467.674
POPSAT HIP 1 19 Apr 11:30:19 11:34:31 90° 102° (ESE) 11:38:46 437.405
NANOSAT C BR1 19 Apr 11:30:29 11:34:40 90° 221° (SW) 11:38:55 145.865
YUBILEINY 19 Apr 11:30:32 11:38:37 44° 88° (E) 11:46:50 435.215
TIGRISAT 19 Apr 11:37:58 11:42:10 40° 263° (W) 11:46:27 435.000
UNISAT 6 19 Apr 11:38:57 11:43:06 38° 263° (W) 11:47:23 437.425
AISAT 19 Apr 11:39:26 11:43:30 34° 97° (E) 11:47:35 437.250
UKube-1 19 Apr 11:39:29 11:43:48 69° 102° (ESE) 11:48:07 .
ZACube-1 19 Apr 11:44:20 11:48:54 63° 286° (WNW) 11:53:26 437.345
CUBEBUG 2 19 Apr 11:47:49 11:52:16 41° 289° (WNW) 11:56:42 437.445
AAUSAT CUBESAT 2 19 Apr 11:50:19 11:52:51 15° 296° (WNW) 11:55:13 437.432
CUBEBUG 1 19 Apr 11:51:40 11:55:01 22° 93° (E) 11:58:28 437.445
50 SAT 19 Apr 11:53:02 11:57:01 51° 99° (E) 12:00:58 437.505
ESTCUBE 1 19 Apr 11:53:20 11:57:06 26° 94° (E) 12:00:54 437.505/2401.250
POLYITAN 1 19 Apr 11:56:53 12:00:56 45° 261° (W) 12:05:00 437.675
HO-68 19 Apr 11:59:07 12:04:46 25° 303° (WNW) 12:10:12 435.675
Oscar 11 19 Apr 12:01:40 12:05:13 24° 293° (WNW) 12:08:39 145.826/435.025
DUCHIFAT 1 19 Apr 12:07:11 12:11:03 36° 263° (W) 12:14:57 145.980
DELFI C3 19 Apr 12:11:45 12:14:54 21° 293° (WNW) 12:17:57 145.870
Cosmos 2491 19 Apr 12:17:12 12:25:34 48° 271° (W) 12:33:50 435.465 / 435.565
QB50P1 19 Apr 12:20:22 12:23:56 26° 266° (W) 12:27:28 145.935-145.965
DX 1 19 Apr 12:22:23 12:26:28 40° 290° (WNW) 12:30:31 434.975-435.025
ANTELSAT 19 Apr 12:22:44 12:25:21 15° 272° (W) 12:27:50 437.575/2403.000
BEESAT 2 19 Apr 12:29:28 12:32:04 16° 37° (NE) 12:34:43 435.950
UWE-3 19 Apr 12:30:06 12:33:33 20° 295° (WNW) 12:36:54 435.000/436.395/437.385
Oscar 19 19 Apr 12:30:21 12:33:35 17° 61° (ENE) 12:36:59 437.125/150
BUGSAT 1 19 Apr 12:35:02 12:38:23 24° 266° (W) 12:41:39 437.445
BEESAT 3 19 Apr 12:37:05 12:40:10 20° 41° (NE) 12:43:17 437.485
HUMSAT D 19 Apr 12:38:21 12:42:17 33° 290° (WNW) 12:46:10 437.325/437.525
QB50P2 19 Apr 12:45:12 12:47:40 15° 271° (W) 12:49:58 145.880/145.840
AIST 2 19 Apr 12:46:50 12:47:55 11° 30° (NNE) 12:49:08 435.215
PCSat 19 Apr 12:53:23 12:56:33 15° 326° (NW) 12:59:34 145.827
Cosmos 2504 19 Apr 12:58:08 13:02:09 15° 76° (ENE) 13:06:48 435.465 / 435.565
FUNcube-1 19 Apr 13:00:00 13:02:18 13° 298° (WNW) 13:04:21 145.935
VELOX 1 19 Apr 13:01:03 13:05:06 35° 290° (WNW) 13:09:06 145.980
AISAT 19 Apr 13:16:19 13:19:57 25° 293° (WNW) 13:23:32 437.250
AIST 1 19 Apr 13:16:32 13:20:49 88° 82° (E) 13:25:04
UKube-1 19 Apr 13:17:19 13:19:28 13° 298° (WNW) 13:21:27 .
SO-50 19 Apr 13:20:48 13:24:42 28° 114° (ESE) 13:28:48 436.795
YUBILEINY 19 Apr 13:27:06 13:35:30 45° 289° (WNW) 13:43:50 435.215
CUBEBUG 1 19 Apr 13:27:31 13:31:31 36° 290° (WNW) 13:35:29 437.445
50 SAT 19 Apr 13:29:04 13:31:29 15° 296° (WNW) 13:33:45 437.505
ESTCUBE 1 19 Apr 13:30:00 13:34:01 32° 291° (WNW) 13:37:58 437.505/2401.250
TISAT 1 19 Apr 13:36:30 13:40:43 64° 101° (E) 13:44:55 437.305
SPROUT 19 Apr 13:39:40 13:44:01 87° 103° (ESE) 13:48:21 437.525
AO-7 19 Apr 13:46:24 13:49:40 13° 42° (NE) 13:53:20 29.400- 29.500
RS-15 19 Apr 13:54:21 13:56:20 11° 96° (E) 13:59:27 29.354- 29.394
ISS 19 Apr 14:02:35 14:03:28 11° 132° (SE) 14:04:28 145.825
BEESAT 2 19 Apr 14:06:35 14:10:44 78° 237° (WSW) 14:14:48 435.950
BEESAT 19 Apr 14:06:37 14:10:16 22° 92° (E) 14:14:01 436.000
Oscar 19 19 Apr 14:07:19 14:12:26 69° 258° (WSW) 14:17:37 437.125/150
SWISSCUBE 19 Apr 14:07:45 14:11:36 25° 93° (E) 14:15:31 437.505
BEESAT 3 19 Apr 14:14:30 14:18:31 53° 240° (WSW) 14:22:26 437.485
Gurwin Techsat 1B 19 Apr 14:14:39 14:19:34 41° 69° (ENE) 14:24:33 435.225
AIST 2 19 Apr 14:23:19 14:27:31 54° 51° (NE) 14:31:38 435.215
ITAMSAT 1 19 Apr 14:26:12 14:31:18 60° 71° (ENE) 14:36:25 435.822/435.867
Cosmos 2504 19 Apr 14:45:27 14:54:11 71° 94° (E) 15:03:01 435.465 / 435.565
SO-50 19 Apr 15:00:38 15:05:06 41° 313° (NW) 15:09:42 436.795
ITUPSAT 1 19 Apr 15:08:08 15:12:56 86° 104° (ESE) 15:17:42 437.325
JAS-2 19 Apr 15:13:18 15:19:55 32° 62° (ENE) 15:26:36 435.910
TISAT 1 19 Apr 15:13:53 15:16:03 13° 297° (WNW) 15:18:03 437.305
SPROUT 19 Apr 15:18:34 15:19:30 10° 299° (WNW) 15:20:13 437.525
STARS 19 Apr 15:31:46 15:34:56 20° 92° (E) 15:38:14 437.465
AO-7 19 Apr 15:32:51 15:40:43 51° 63° (ENE) 15:48:40 29.400- 29.500
ISS 19 Apr 15:36:08 15:39:23 82° 150° (SSE) 15:42:40 145.825
HORYU 2 19 Apr 15:38:10 15:42:30 52° 72° (ENE) 15:46:54 437.375
BEESAT 19 Apr 15:43:49 15:48:20 42° 290° (WNW) 15:52:48 436.000
SWISSCUBE 19 Apr 15:45:11 15:49:36 38° 291° (WNW) 15:53:58 437.505
Gurwin Techsat 1B 19 Apr 15:55:09 15:59:42 28° 266° (W) 16:04:12 435.225
KKS-1 19 Apr 15:55:39 16:00:03 53° 100° (E) 16:04:27 437.445
RS-15 19 Apr 15:56:00 16:06:31 60° 115° (ESE) 16:17:20 29.354- 29.394
GONETS M04 19 Apr 15:57:36 16:00:55 13° 75° (ENE) 16:04:53
AIST 2 19 Apr 16:02:58 16:05:44 17° 248° (WSW) 16:08:19 435.215
ITAMSAT 1 19 Apr 16:07:41 16:11:16 18° 270° (W) 16:14:41 435.822/435.867
Cosmos 2504 19 Apr 16:40:56 16:48:28 29° 296° (WNW) 16:55:47 435.465 / 435.565
SO-50 19 Apr 16:45:38 16:47:01 11° 336° (NNW) 16:48:18 436.795
ITUPSAT 1 19 Apr 16:48:07 16:50:12 13° 300° (WNW) 16:52:05 437.325
JAS-2 19 Apr 16:56:46 17:04:30 64° 260° (W) 17:12:16 435.910
STARS 19 Apr 17:07:25 17:11:38 42° 289° (WNW) 17:15:49 437.465
MOZHAYETS 4 19 Apr 17:09:04 17:12:41 23° 92° (E) 17:16:21
ISS 19 Apr 17:13:13 17:16:03 26° 346° (NNW) 17:18:52 145.825
HORYU 2 19 Apr 17:16:36 17:19:31 16° 270° (W) 17:22:17 437.375
AO-7 19 Apr 17:26:06 17:33:45 39° 263° (W) 17:41:21 29.400- 29.500
KKS-1 19 Apr 17:33:21 17:36:19 17° 296° (WNW) 17:39:10 437.445
Cosmos 2499 19 Apr 17:44:44 17:44:45 10° 73° (ENE) 17:45:34 435.465 / 435.565
GONETS M04 19 Apr 17:47:37 17:56:15 69° 94° (E) 18:05:01
CUTE-I 19 Apr 18:03:54 18:08:52 42° 69° (ENE) 18:13:53 437.470
RS-15 19 Apr 18:08:49 18:19:19 48° 321° (NW) 18:30:05 29.354- 29.394
PCSat 19 Apr 18:10:21 18:14:44 25° 43° (NE) 18:19:11 145.827
Cubesat XI-IV 19 Apr 18:11:13 18:16:20 49° 70° (ENE) 18:21:29 437.490
CUBESAT XI-V 19 Apr 18:27:35 18:29:12 12° 87° (E) 18:31:04 437.345
MOZHAYETS 4 19 Apr 18:45:46 18:50:05 38° 290° (WNW) 18:54:18
AUBIESAT-1 19 Apr 18:47:43 18:50:54 20° 95° (E) 18:54:01 437.475
JAS-2 19 Apr 18:47:58 18:51:10 12° 281° (W) 18:53:44 435.910
ISS 19 Apr 18:50:33 18:53:08 21° 6° (N) 18:55:43 145.825
HO-68 19 Apr 18:57:08 19:00:29 14° 50° (NE) 19:04:10 435.675
STRAND 1 19 Apr 19:02:16 19:04:49 14° 88° (E) 19:07:37 437.568
DANDE 19 Apr 19:05:23 19:08:17 85° 100° (E) 19:11:59 436.750
CUSAT 1 19 Apr 19:10:36 19:13:41 54° 285° (WNW) 19:17:41 437.405
Cosmos 2499 19 Apr 19:27:44 19:36:15 56° 91° (E) 19:44:45 435.465 / 435.565
M-CUBED/EXP-1 PRIME 19 Apr 19:32:42 19:37:12 70° 106° (ESE) 19:41:19 437.505
VERMONT LUNAR 19 Apr 19:44:25 19:46:26 15° 153° (SSE) 19:48:31 437.305
CUTE-I 19 Apr 19:44:36 19:49:07 27° 267° (W) 19:53:34 437.470
GONETS M04 19 Apr 19:46:35 19:54:00 28° 296° (WNW) 20:01:14
Cubesat XI-IV 19 Apr 19:52:30 19:56:45 23° 268° (W) 20:00:53 437.490
PCSat 19 Apr 19:53:14 19:58:37 63° 243° (WSW) 20:03:57 145.827
CUBESAT XI-V 19 Apr 20:02:40 20:07:16 73° 285° (WNW) 20:11:51 437.345
SO-50 19 Apr 20:11:35 20:12:59 11° 25° (NNE) 20:14:31 436.795
PRISM 19 Apr 20:18:26 20:22:33 74° 286° (WNW) 20:26:37 437.425
COMPASS 1 19 Apr 20:18:42 20:21:23 17° 65° (ENE) 20:24:11 437.405
AUBIESAT-1 19 Apr 20:21:45 20:25:58 40° 295° (WNW) 20:29:49 437.475
RS-15 19 Apr 20:26:28 20:35:21 26° 353° (N) 20:44:27 29.354- 29.394
ISS 19 Apr 20:26:52 20:30:03 48° 26° (NNE) 20:33:13 145.825
CINEMA 3 19 Apr 20:28:15 20:30:28 14° 62° (ENE) 20:32:55 145.822/145.860
CANX-2 19 Apr 20:28:59 20:32:49 33° 70° (ENE) 20:36:44 2200.000
DOVE 4 19 Apr 20:29:31 20:33:00 26° 68° (ENE) 20:36:39 437.250
SEEDS 19 Apr 20:32:23 20:35:59 28° 69° (ENE) 20:39:41 437.485
BRITE-PL 19 Apr 20:35:04 20:39:10 70° 75° (ENE) 20:43:21 437.365/2234.400
CUTE 1.7 + AOD 2 19 Apr 20:39:02 20:43:00 38° 71° (ENE) 20:47:02 437.475
STRAND 1 19 Apr 20:39:34 20:44:40 73° 287° (WNW) 20:49:45 437.568
HO-68 19 Apr 20:39:56 20:46:59 64° 69° (ENE) 20:54:07 435.675
PHONESAT 2.4 19 Apr 20:42:55 20:45:14 16° 153° (SSE) 20:47:35 2401.200-2431.200
GOMX 1 19 Apr 20:57:15 21:01:23 78° 76° (ENE) 21:05:39 467.674
AAUSAT CUBESAT 2 19 Apr 21:05:33 21:09:32 43° 72° (ENE) 21:13:35 437.432
ZACube-1 19 Apr 21:07:56 21:09:58 14° 62° (ENE) 21:12:14 437.345
M-CUBED/EXP-1 PRIME 19 Apr 21:08:55 21:11:29 15° 305° (NW) 21:13:49 437.505
CUBEBUG 2 19 Apr 21:11:54 21:15:08 22° 66° (ENE) 21:18:34 437.445
VERMONT LUNAR 19 Apr 21:20:19 21:23:29 38° 169° (S) 21:26:41 437.305
Oscar 11 19 Apr 21:21:21 21:25:12 32° 69° (ENE) 21:29:07 145.826/435.025
Cosmos 2499 19 Apr 21:21:41 21:29:48 37° 291° (WNW) 21:37:42 435.465 / 435.565
DELFI C3 19 Apr 21:25:24 21:28:47 26° 69° (ENE) 21:32:14 145.870
YUBILEINY 19 Apr 21:39:06 21:45:37 23° 60° (ENE) 21:52:23 435.215
DX 1 19 Apr 21:44:01 21:47:18 22° 66° (ENE) 21:50:41 434.975-435.025
SO-50 19 Apr 21:50:13 21:54:54 41° 47° (NE) 21:59:35 436.795
UWE-3 19 Apr 21:51:27 21:55:30 44° 72° (ENE) 21:59:44 435.000/436.395/437.385
COMPASS 1 19 Apr 21:52:37 21:56:44 48° 261° (W) 22:00:53 437.405
HUMSAT D 19 Apr 21:56:38 21:59:44 21° 66° (ENE) 22:02:58 437.325/437.525
CINEMA 3 19 Apr 22:03:01 22:07:12 61° 260° (W) 22:11:35 145.822/145.860
ISS 19 Apr 22:03:31 22:06:16 25° 223° (SW) 22:08:59 145.825
CANX-2 19 Apr 22:05:21 22:08:50 23° 267° (W) 22:12:16 2200.000
DOVE 4 19 Apr 22:07:08 22:10:46 28° 266° (W) 22:14:27 437.250
SEEDS 19 Apr 22:08:03 22:11:46 28° 265° (W) 22:15:27 437.485
CUTE 1.7 + AOD 2 19 Apr 22:15:51 22:19:06 20° 268° (W) 22:22:16 437.475
FUNcube-1 19 Apr 22:18:57 22:23:12 69° 74° (ENE) 22:27:35 145.935
PHONESAT 2.4 19 Apr 22:19:38 22:23:01 40° 169° (S) 22:26:24 2401.200-2431.200
STRAND 1 19 Apr 22:21:48 22:23:05 11° 303° (WNW) 22:24:05 437.568
VELOX 1 19 Apr 22:24:04 22:27:41 26° 67° (ENE) 22:31:22 145.980
HO-68 19 Apr 22:29:22 22:35:18 26° 268° (W) 22:41:03 435.675
UKube-1 19 Apr 22:35:32 22:39:49 70° 74° (ENE) 22:44:08 .
ANTELSAT 19 Apr 22:36:27 22:38:08 12° 86° (E) 22:40:06 437.575/2403.000
AISAT 19 Apr 22:38:42 22:42:44 37° 70° (ENE) 22:46:49 437.250
50 SAT 19 Apr 22:39:57 22:43:35 36° 71° (ENE) 22:47:19 437.505
ZACube-1 19 Apr 22:41:35 22:45:50 66° 259° (W) 22:50:13 437.345
RS-15 19 Apr 22:42:15 22:52:14 34° 27° (NNE) 23:02:45 29.354- 29.394
AAUSAT CUBESAT 2 19 Apr 22:42:32 22:45:26 17° 270° (W) 22:48:12 437.432
CUBEBUG 2 19 Apr 22:47:38 22:51:38 38° 263° (W) 22:55:45 437.445
CUBEBUG 1 19 Apr 22:49:28 22:52:50 23° 67° (ENE) 22:56:16 437.445
ESTCUBE 1 19 Apr 22:54:23 22:58:17 30° 68° (ENE) 23:02:14 437.505/2401.250
VERMONT LUNAR 19 Apr 22:57:31 23:00:46 45° 186° (S) 23:04:00 437.305
Oscar 11 19 Apr 22:57:48 23:01:26 25° 267° (W) 23:05:01 145.826/435.025
DELFI C3 19 Apr 23:00:19 23:03:52 27° 265° (W) 23:07:24 145.870
NANOSAT C BR1 19 Apr 23:15:43 23:17:45 13° 89° (E) 23:19:59 145.865
POPSAT HIP 1 19 Apr 23:15:46 23:17:51 14° 89° (E) 23:20:07 437.405
DX 1 19 Apr 23:19:19 23:23:22 37° 263° (W) 23:27:25 434.975-435.025
Cosmos 2491 19 Apr 23:23:24 23:31:22 44° 88° (E) 23:39:32 435.465 / 435.565
TIGRISAT 19 Apr 23:28:02 23:32:27 39° 97° (E) 23:36:52 435.000
UNISAT 6 19 Apr 23:29:12 23:33:41 41° 97° (E) 23:38:07 437.425
UWE-3 19 Apr 23:29:22 23:32:22 18° 270° (W) 23:35:17 435.000/436.395/437.385
SO-50 19 Apr 23:31:01 23:35:23 31° 245° (WSW) 23:39:37 436.795
HUMSAT D 19 Apr 23:31:22 23:35:17 37° 263° (W) 23:39:15 437.325/437.525
YUBILEINY 19 Apr 23:34:54 23:43:43 83° 264° (W) 23:52:26 435.215
POLYITAN 1 19 Apr 23:41:11 23:44:47 26° 94° (E) 23:48:27 437.675
O/OREOS (USA 219) 19 Apr 23:44:01 23:48:07 34° 106° (ESE) 23:52:17 437.305
DUCHIFAT 1 19 Apr 23:50:26 23:54:14 31° 96° (E) 23:58:04 145.980
PHONESAT 2.4 19 Apr 23:57:34 00:01:01 46° 186° (S) 00:04:27 2401.200-2431.200
FUNcube-1 19 Apr 23:58:39 00:00:10 11° 274° (W) 00:01:26 145.935
